Weather History for Rawlins, WY

Change the Weather History Date:

Thursday, February 28, 2013

  Actual Average Record
Temperature  
Mean Temperature 20 °F 27 °F  
Max Temperature 27 °F 38 °F 53 °F (1972)
Min Temperature 12 °F 17 °F -10 °F (1962)
Degree Days  
Heating Degree Days 45 38  
Month to date heating degree days 1235 1156  
Since 1 July heating degree days 5601 5957  
Cooling Degree Days 0 0  
Month to date cooling degree days 0 0  
Year to date cooling degree days 0 0  
Moisture  
Dew Point 10 °F    
Average Humidity 64    
Maximum Humidity 74    
Minimum Humidity 54    
Precipitation  
Precipitation 0.00 in 0.02 in 0.25 in (1957)
Month to date precipitation 0.19 0.42  
Year to date precipitation 0.36 0.78  
Sea Level Pressure  
Sea Level Pressure 30.40 in    
Wind  
Wind Speed 19 mph (WSW)    
Max Wind Speed 35 mph    
Max Gust Speed 40 mph    
Visibility 10 miles    
Events      
T = Trace of Precipitation, MM = Missing Value Source: NWS Daily Summary

Daily Weather History Graph

Daily Weather History Graph

Search for Another Location

Airport:

Trip Planner

Search our weather history database for the weather conditions in past years. The results will help you decide how hot, cold, wet, or windy it might be!

Date:

Astronomy

Feb. 28, 2013 Rise Set
Actual Time 6:44 AM MST 5:58 PM MST
Civil Twilight 6:16 AM MST 6:26 PM MST
Nautical Twilight 5:44 AM MST 6:58 PM MST
Astronomical Twilight 5:12 AM MST 7:30 PM MST
Moon 9:32 PM MST (2/28) 7:52 AM MST (2/28)
Length of Visible Light 12h 09m
Length of Day
11h 13m
Waning Gibbous, 90% of the Moon is Illuminated
Feb 28
Waning Gibbous
Mar 4
Last Quarter
Mar 11
New
Mar 19
First Quarter
Mar 27
Full

Hourly Weather History & Observations

Time (MST) Temp. Windchill Dew Point Humidity Pressure Visibility Wind Dir Wind Speed Gust Speed Precip Events Conditions
12:53 AM 12.0 °F 0.5 °F 3.0 °F 67% 30.43 in 10.0 mi SW 8.1 mph - N/A   Clear
1:53 AM 12.9 °F -3.4 °F 3.9 °F 67% 30.40 in 10.0 mi WSW 16.1 mph - N/A   Clear
2:53 AM 14.0 °F -2.0 °F 3.9 °F 64% 30.39 in 10.0 mi WSW 16.1 mph 20.7 mph N/A   Clear
3:53 AM 14.0 °F -3.4 °F 3.9 °F 64% 30.39 in 10.0 mi WSW 19.6 mph - N/A   Clear
4:53 AM 14.0 °F -2.0 °F 3.9 °F 64% 30.39 in 10.0 mi WSW 16.1 mph - N/A   Clear
5:53 AM 14.0 °F -3.9 °F 3.9 °F 64% 30.44 in 10.0 mi SW 20.7 mph - N/A   Clear
7:53 AM 15.1 °F -2.5 °F 3.9 °F 61% 30.41 in 10.0 mi West 20.7 mph 27.6 mph N/A   Clear
8:53 AM 17.1 °F -1.4 °F 5.0 °F 59% 30.42 in 10.0 mi WSW 25.3 mph 31.1 mph N/A   Partly Cloudy
9:53 AM 21.0 °F 4.6 °F 8.1 °F 57% 30.41 in 10.0 mi WSW 23.0 mph 31.1 mph N/A   Scattered Clouds
10:53 AM 21.0 °F 3.3 °F 8.1 °F 57% 30.41 in 10.0 mi WSW 27.6 mph 38.0 mph N/A   Overcast
11:53 AM 23.0 °F 6.9 °F 9.0 °F 55% 30.41 in 10.0 mi WSW 24.2 mph 29.9 mph N/A   Scattered Clouds
12:53 PM 24.1 °F 10.1 °F 10.9 °F 57% 30.41 in 10.0 mi WSW 18.4 mph 33.4 mph N/A   Clear
1:53 PM 24.1 °F 8.7 °F 10.9 °F 57% 30.36 in 10.0 mi WSW 23.0 mph 31.1 mph N/A   Clear
2:53 PM 25.0 °F 9.5 °F 12.9 °F 60% 30.37 in 10.0 mi WSW 24.2 mph 34.5 mph N/A   Clear
3:53 PM 26.1 °F 12.3 °F 14.0 °F 60% 30.38 in 10.0 mi WSW 19.6 mph 26.5 mph N/A   Clear
4:53 PM 25.0 °F 12.6 °F 14.0 °F 63% 30.38 in 10.0 mi WSW 15.0 mph - N/A   Clear
5:53 PM 23.0 °F 8.7 °F 14.0 °F 68% 30.41 in 10.0 mi WSW 18.4 mph - N/A   Mostly Cloudy
6:53 PM 24.1 °F 9.4 °F 15.1 °F 69% 30.41 in 10.0 mi WSW 20.7 mph - N/A   Clear
7:53 PM 24.1 °F 11.0 °F 16.0 °F 71% 30.40 in 10.0 mi WSW 16.1 mph - N/A   Clear
8:53 PM 23.0 °F 11.1 °F 16.0 °F 74% 30.41 in 10.0 mi WSW 12.7 mph 21.9 mph N/A   Clear
9:53 PM 23.0 °F 8.0 °F 16.0 °F 74% 30.39 in 10.0 mi WSW 20.7 mph - N/A   Clear
10:53 PM 24.1 °F 11.0 °F 16.0 °F 71% 30.39 in 10.0 mi WSW 16.1 mph - N/A   Clear
11:53 PM 23.0 °F 9.6 °F 16.0 °F 74% 30.41 in 10.0 mi WSW 16.1 mph - N/A   Clear